Monroe, NC

7:46 AM EST on November 19, 2017 (GMT -0500)
Monroe

Weather History for KEQY - February, 2013

Change the Weather History Date:

Saturday, February 16, 2013

  Actual Average (KCLT) Record (KCLT)
Temperature  
Mean Temperature 38 °F -  
Max Temperature 46 °F 55 °F 76 °F (1976)
Min Temperature 28 °F 35 °F 11 °F (1905)
Degree Days  
Heating Degree Days 27    
Moisture  
Dew Point 32 °F    
Average Humidity 86    
Maximum Humidity 100    
Minimum Humidity 65    
Precipitation  
Precipitation 0.01 in - - ()
Sea Level Pressure  
Sea Level Pressure 29.94 in    
Wind  
Wind Speed 8 mph (North)    
Max Wind Speed 15 mph    
Max Gust Speed 24 mph    
Visibility 7 miles    
Events Fog , Rain , Snow    
Averages and records for this station are not official NWS values.
T = Trace of Precipitation, MM = Missing Value Source: NWS Daily Summary

Daily Weather History Graph

Daily Weather History Graph

Search for Another Location

Airport or City:

Trip Planner

Search our weather history database for the weather conditions in past years. The results will help you decide how hot, cold, wet, or windy it might be!

Date:

Astronomy

Feb. 16, 2013 Rise Set
Actual Time 7:07 AM EST 6:06 PM EST
Civil Twilight 6:41 AM EST 6:32 PM EST
Nautical Twilight 6:11 AM EST 7:01 PM EST
Astronomical Twilight 5:42 AM EST 7:31 PM EST
Moon 10:35 AM EST (2/16) No Moon Set
Length of Visible Light 11h 50m
Length of Day
10h 59m
Waxing Crescent, 39% of the Moon is Illuminated
Feb 16
Waxing Crescent
Feb 17
First Quarter
Feb 25
Full
Mar 4
Last Quarter
Mar 11
New

Hourly Weather History & Observations

Time (EST) Temp. Windchill Dew Point Humidity Pressure Visibility Wind Dir Wind Speed Gust Speed Precip Events Conditions
12:53 AM 46.9 °F - 36.0 °F 66% 29.98 in 10.0 mi North 8.1 mph - N/A   Partly Cloudy
1:53 AM 44.1 °F 40.1 °F 34.0 °F 68% 29.99 in 10.0 mi North 6.9 mph - N/A   Scattered Clouds
2:53 AM 43.0 °F 38.2 °F 33.1 °F 68% 29.98 in 10.0 mi NE 8.1 mph - N/A   Overcast
3:53 AM 42.1 °F 36.6 °F 32.0 °F 67% 29.97 in 10.0 mi NNE 9.2 mph - N/A   Overcast
4:53 AM 42.1 °F 38.4 °F 30.9 °F 65% 29.97 in 10.0 mi North 5.8 mph - N/A   Overcast
5:50 AM 41.0 °F 33.5 °F 30.2 °F 65% 29.93 in 10.0 mi NNE 13.8 mph 23.0 mph 0.00 in Rain Light Rain
5:53 AM 39.9 °F 32.5 °F 30.9 °F 70% 29.98 in 10.0 mi NNE 12.7 mph 23.0 mph 0.00 in Rain Light Rain
6:00 AM 39.2 °F 32.0 °F 32.0 °F 75% 29.94 in 10.0 mi North 11.5 mph - 0.00 in Rain Light Rain
6:45 AM 37.4 °F 30.8 °F 33.8 °F 87% 29.95 in 7.0 mi North 9.2 mph - 0.00 in Rain Light Rain
6:53 AM 37.0 °F 29.3 °F 33.1 °F 86% 29.99 in 6.0 mi North 11.5 mph - 0.00 in Rain Rain
7:15 AM 35.6 °F 30.7 °F 33.8 °F 93% 29.95 in 10.0 mi North 5.8 mph - 0.01 in Rain Light Rain
7:35 AM 35.6 °F 29.9 °F 33.8 °F 93% 29.95 in 10.0 mi North 6.9 mph - 0.01 in Rain Light Rain
7:53 AM 36.0 °F 29.6 °F 34.0 °F 93% 30.00 in 10.0 mi NNE 8.1 mph - 0.01 in Rain Light Rain
8:04 AM 35.6 °F 28.6 °F 33.8 °F 93% 29.95 in 10.0 mi NNE 9.2 mph - 0.00 in Rain Light Rain
8:12 AM 35.6 °F 27.5 °F 33.8 °F 93% 29.94 in 10.0 mi NNE 11.5 mph - 0.00 in Rain Light Rain
8:53 AM 35.1 °F 27.4 °F 34.0 °F 96% 30.00 in 5.0 mi NNE 10.4 mph - 0.00 in Snow Light Snow
9:03 AM 35.6 °F 29.2 °F 33.8 °F 93% 29.95 in 5.0 mi NNE 8.1 mph - 0.00 in   Overcast
9:13 AM 35.6 °F 29.2 °F 33.8 °F 93% 29.95 in 1.8 mi North 8.1 mph - 0.00 in Snow Light Snow
9:40 AM 33.8 °F 28.6 °F 33.8 °F 100% 29.95 in 1.2 mi North 5.8 mph - 0.00 in Snow Light Snow
9:53 AM 34.0 °F 29.8 °F 33.1 °F 96% 30.00 in 0.8 mi NNE 4.6 mph - 0.00 in Snow Light Snow
10:00 AM 33.8 °F 28.6 °F 33.8 °F 100% 29.95 in 1.2 mi NE 5.8 mph - 0.00 in Snow Light Snow
10:13 AM 33.8 °F 29.6 °F 33.8 °F 100% 29.94 in 2.5 mi NE 4.6 mph - 0.00 in Snow Light Snow
10:28 AM 35.6 °F 31.7 °F 33.8 °F 93% 29.94 in 3.0 mi NNE 4.6 mph - 0.00 in Snow Light Snow
10:53 AM 36.0 °F 33.3 °F 34.0 °F 93% 29.99 in 6.0 mi North 3.5 mph - 0.00 in Snow Light Snow
11:20 AM 35.6 °F 30.7 °F 33.8 °F 93% 29.93 in 4.0 mi NNE 5.8 mph - 0.00 in Snow Light Snow
11:29 AM 35.6 °F 32.8 °F 33.8 °F 93% 29.94 in 4.0 mi NNW 3.5 mph - 0.00 in Snow Light Snow
11:41 AM 35.6 °F 32.8 °F 33.8 °F 93% 29.93 in 3.0 mi North 3.5 mph - 0.00 in Snow Light Snow
11:50 AM 35.6 °F - 33.8 °F 93% 29.92 in 2.5 mi Calm Calm - 0.00 in Snow Light Snow
11:53 AM 35.1 °F 32.2 °F 34.0 °F 96% 29.98 in 3.0 mi WNW 3.5 mph - 0.00 in Snow Light Snow
12:53 PM 36.0 °F - 34.0 °F 93% 29.94 in 8.0 mi Calm Calm - 0.00 in Rain Light Rain
1:19 PM 37.4 °F - 33.8 °F 87% 29.87 in 10.0 mi Calm Calm - 0.00 in   Overcast
1:53 PM 37.0 °F - 34.0 °F 89% 29.92 in 10.0 mi Calm Calm - 0.00 in   Overcast
2:01 PM 37.4 °F 33.8 °F 33.8 °F 87% 29.85 in 10.0 mi ENE 4.6 mph - N/A   Overcast
2:39 PM 37.4 °F 33.8 °F 33.8 °F 87% 29.84 in 10.0 mi North 4.6 mph - N/A   Overcast
2:53 PM 37.9 °F 33.5 °F 33.1 °F 83% 29.88 in 10.0 mi NNE 5.8 mph - N/A   Overcast
3:26 PM 37.4 °F 32.8 °F 33.8 °F 87% 29.83 in 10.0 mi NE 5.8 mph - N/A   Overcast
3:53 PM 37.0 °F 32.4 °F 30.9 °F 79% 29.88 in 10.0 mi NNE 5.8 mph - 0.00 in   Overcast
4:08 PM 37.4 °F 31.4 °F 33.8 °F 87% 29.83 in 10.0 mi NE 8.1 mph - N/A   Overcast
4:53 PM 37.0 °F 32.4 °F 32.0 °F 82% 29.89 in 10.0 mi NNE 5.8 mph - N/A   Overcast
5:23 PM 37.4 °F 30.8 °F 32.0 °F 81% 29.85 in 10.0 mi North 9.2 mph - 0.00 in Rain Light Rain
5:27 PM 35.6 °F 27.1 °F 30.2 °F 81% 29.85 in 1.5 mi NW 12.7 mph 23.0 mph 0.00 in Snow Light Snow
5:30 PM 33.8 °F 25.8 °F 30.2 °F 87% 29.85 in 0.5 mi NNW 10.4 mph 23.0 mph 0.00 in Fog , Snow Snow
5:39 PM 33.8 °F 23.9 °F 30.2 °F 87% 29.85 in 0.2 mi NNW 15.0 mph 24.2 mph 0.00 in Fog , Snow Heavy Snow
5:53 PM 32.0 °F 22.1 °F 30.9 °F 96% 29.92 in 0.8 mi North 13.8 mph 18.4 mph 0.00 in Snow Light Snow
6:07 PM 33.8 °F 25.3 °F 30.2 °F 87% 29.86 in 1.0 mi North 11.5 mph 20.7 mph 0.00 in Snow Light Snow
6:46 PM 33.8 °F 24.8 °F 30.2 °F 87% 29.89 in 2.0 mi NNW 12.7 mph 19.6 mph 0.00 in Snow Light Snow
6:53 PM 33.1 °F 25.5 °F 30.9 °F 92% 29.96 in 3.0 mi NNW 9.2 mph 19.6 mph 0.00 in Snow Light Snow
7:06 PM 33.8 °F 25.3 °F 30.2 °F 87% 29.90 in 4.0 mi NW 11.5 mph - 0.00 in Snow Light Snow
7:53 PM 32.0 °F 23.0 °F 28.0 °F 85% 29.98 in 10.0 mi NW 11.5 mph 21.9 mph 0.00 in Rain Light Rain
8:53 PM 32.0 °F 28.7 °F 26.1 °F 79% 29.99 in 10.0 mi WNW 3.5 mph - 0.00 in   Mostly Cloudy
9:53 PM 30.0 °F 25.2 °F 27.0 °F 88% 30.02 in 10.0 mi WNW 4.6 mph - N/A   Partly Cloudy
10:53 PM 30.0 °F 22.4 °F 21.9 °F 72% 30.03 in 10.0 mi WNW 8.1 mph - N/A   Clear
11:53 PM 28.0 °F 24.2 °F 23.0 °F 81% 30.05 in 10.0 mi WNW 3.5 mph - N/A   Clear